, LA

(GMT )
Boothville

Weather History for KBVE - April, 2013

Change the Weather History Date:

Monday, April 22, 2013

  Actual Average Record
Temperature  
Mean Temperature 68 °F -  
Max Temperature 73 °F - - ()
Min Temperature 64 °F - - ()
Cooling Degree Days 4    
Growing Degree Days 18 (Base 50)    
Moisture  
Dew Point 64 °F    
Average Humidity 83    
Maximum Humidity 93    
Minimum Humidity 78    
Precipitation  
Precipitation 0.00 in - - ()
Sea Level Pressure  
Sea Level Pressure 30.08 in    
Wind  
Wind Speed 8 mph (ENE)    
Max Wind Speed 16 mph    
Max Gust Speed 22 mph    
Visibility 10 miles    
Events      
T = Trace of Precipitation, MM = Missing Value Source: NWS Daily Summary

Daily Weather History Graph

Daily Weather History Graph

Search for Another Location

Airport or City:

Trip Planner

Search our weather history database for the weather conditions in past years. The results will help you decide how hot, cold, wet, or windy it might be!

Date:

Astronomy

Apr. 22, 2013 Rise Set
Actual Time 6:23 AM CDT 7:28 PM CDT
Civil Twilight 5:59 AM CDT 7:53 PM CDT
Nautical Twilight 5:29 AM CDT 8:22 PM CDT
Astronomical Twilight 4:59 AM CDT 8:52 PM CDT
Moon 4:30 PM CDT (4/22) 4:03 AM CDT (4/22)
Length of Visible Light 13h 54m
Length of Day
13h 04m
Waxing Gibbous, 88% of the Moon is Illuminated
Apr 22
Waxing Gibbous
Apr 25
Full
May 2
Last Quarter
May 9
New
May 17
First Quarter

Hourly Weather History & Observations

Time (CDT) Temp. Dew Point Humidity Pressure Visibility Wind Dir Wind Speed Gust Speed Precip Events Conditions
12:51 AM 64.9 °F 57.9 °F 78% 30.11 in 10.0 mi ENE 6.9 mph - N/A   Clear
1:51 AM 64.9 °F 59.0 °F 81% 30.09 in 10.0 mi NE 5.8 mph - N/A   Clear
2:51 AM 64.9 °F 59.0 °F 81% 30.07 in 10.0 mi ENE 6.9 mph - N/A   Clear
3:51 AM 64.9 °F 59.0 °F 81% 30.06 in 10.0 mi ENE 5.8 mph - N/A   Scattered Clouds
4:44 AM 64.4 °F 59.0 °F 83% 30.05 in 10.0 mi NE 5.8 mph - N/A   Mostly Cloudy
4:51 AM 64.9 °F 59.0 °F 81% 30.05 in 10.0 mi NE 4.6 mph - N/A   Mostly Cloudy
5:51 AM 64.9 °F 60.1 °F 84% 30.06 in 10.0 mi Variable 4.6 mph - N/A   Overcast
6:22 AM 64.4 °F 60.8 °F 88% 30.07 in 10.0 mi NE 4.6 mph - N/A   Mostly Cloudy
6:51 AM 66.0 °F 60.1 °F 81% 30.08 in 10.0 mi NE 5.8 mph - N/A   Overcast
7:00 AM 66.2 °F 60.8 °F 83% 30.08 in 10.0 mi NE 4.6 mph - N/A   Overcast
7:51 AM 66.9 °F 61.0 °F 81% 30.10 in 10.0 mi NNE 4.6 mph - N/A   Overcast
8:36 AM 68.0 °F 60.8 °F 78% 30.11 in 10.0 mi NNE 6.9 mph - N/A   Mostly Cloudy
8:51 AM 68.0 °F 62.1 °F 81% 30.11 in 10.0 mi NNE 3.5 mph - N/A   Overcast
9:02 AM 69.8 °F 62.6 °F 78% 30.11 in 10.0 mi Variable 3.5 mph - N/A   Overcast
9:51 AM 70.0 °F 64.9 °F 84% 30.11 in 10.0 mi NE 9.2 mph - N/A   Partly Cloudy
10:51 AM 72.0 °F 66.9 °F 84% 30.11 in 10.0 mi NE 6.9 mph - N/A   Partly Cloudy
11:22 AM 73.4 °F 66.2 °F 78% 30.12 in 10.0 mi ENE 9.2 mph - N/A   Mostly Cloudy
12:38 PM 73.4 °F 66.2 °F 78% 30.10 in 10.0 mi ENE 9.2 mph - N/A   Mostly Cloudy
12:51 PM 72.0 °F 66.9 °F 84% 30.10 in 10.0 mi NE 8.1 mph - N/A   Overcast
1:46 PM 71.6 °F 66.2 °F 83% 30.09 in 10.0 mi ENE 10.4 mph - N/A   Mostly Cloudy
1:51 PM 73.0 °F 66.9 °F 81% 30.09 in 10.0 mi ENE 10.4 mph - N/A   Mostly Cloudy
2:12 PM 73.4 °F 66.2 °F 78% 30.08 in 10.0 mi ENE 12.7 mph - N/A   Mostly Cloudy
2:24 PM 71.6 °F 66.2 °F 83% 30.08 in 10.0 mi ENE 13.8 mph - N/A   Overcast
2:46 PM 71.6 °F 66.2 °F 83% 30.08 in 10.0 mi East 13.8 mph - N/A   Overcast
2:51 PM 72.0 °F 66.9 °F 84% 30.08 in 10.0 mi ENE 15.0 mph 21.9 mph N/A   Overcast
2:58 PM 73.4 °F 66.2 °F 78% 30.07 in 10.0 mi ENE 11.5 mph 21.9 mph N/A   Overcast
3:51 PM 72.0 °F 66.0 °F 81% 30.07 in 10.0 mi East 16.1 mph 21.9 mph N/A   Mostly Cloudy
4:01 PM 71.6 °F 66.2 °F 83% 30.07 in 10.0 mi East 15.0 mph - N/A   Mostly Cloudy
4:51 PM 72.0 °F 66.0 °F 81% 30.05 in 10.0 mi East 15.0 mph - N/A   Mostly Cloudy
5:29 PM 71.6 °F 66.2 °F 83% 30.05 in 10.0 mi East 16.1 mph - N/A   Mostly Cloudy
5:51 PM 71.1 °F 66.0 °F 84% 30.05 in 10.0 mi East 15.0 mph - N/A   Mostly Cloudy
6:48 PM 69.8 °F 66.2 °F 88% 30.05 in 9.0 mi East 13.8 mph - N/A   Scattered Clouds
6:51 PM 70.0 °F 66.0 °F 87% 30.05 in 9.0 mi East 11.5 mph - N/A   Scattered Clouds
7:51 PM 69.1 °F 64.9 °F 87% 30.06 in 10.0 mi East 11.5 mph - N/A   Partly Cloudy
8:51 PM 68.0 °F 64.9 °F 90% 30.07 in 10.0 mi East 8.1 mph - N/A   Clear
9:51 PM 68.0 °F 64.9 °F 90% 30.08 in 10.0 mi ESE 9.2 mph - N/A   Clear
10:51 PM 66.9 °F 64.9 °F 93% 30.08 in 10.0 mi ESE 8.1 mph - N/A   Clear
11:51 PM 66.9 °F 64.9 °F 93% 30.08 in 10.0 mi ESE 6.9 mph - N/A   Clear